Weather History for Wiscasset, ME

Change the Weather History Date:

Thursday, January 31, 2013

  Actual Average Record
Temperature  
Mean Temperature 42 °F -  
Max Temperature 54 °F 29 °F 54 °F (2013)
Min Temperature 30 °F 10 °F -2 °F (2011)
Degree Days  
Heating Degree Days 23    
Moisture  
Dew Point 37 °F    
Average Humidity 70    
Maximum Humidity 94    
Minimum Humidity 35    
Precipitation  
Precipitation 0.08 in - - ()
Sea Level Pressure  
Sea Level Pressure 29.15 in    
Wind  
Wind Speed 13 mph (SW)    
Max Wind Speed 17 mph    
Max Gust Speed 36 mph    
Visibility 8 miles    
Events Rain    
Averages and records for this station are not official NWS values.
T = Trace of Precipitation, MM = Missing Value Source: NWS Daily Summary

Daily Weather History Graph

Daily Weather History Graph

Search for Another Location

Airport:

Trip Planner

Search our weather history database for the weather conditions in past years. The results will help you decide how hot, cold, wet, or windy it might be!

Date:

Astronomy

Jan. 31, 2013 Rise Set
Actual Time 6:56 AM EST 4:48 PM EST
Civil Twilight 6:26 AM EST 5:18 PM EST
Nautical Twilight 5:51 AM EST 5:53 PM EST
Astronomical Twilight 5:17 AM EST 6:27 PM EST
Moon 9:59 PM EST (1/31) 8:43 AM EST (1/31)
Length of Visible Light 10h 52m
Length of Day
9h 51m
Waning Gibbous, 80% of the Moon is Illuminated
Jan 31
Waning Gibbous
Feb 3
Last Quarter
Feb 10
New
Feb 17
First Quarter
Feb 25
Full

Hourly Weather History & Observations

Time (EST) Temp. Windchill Dew Point Humidity Pressure Visibility Wind Dir Wind Speed Gust Speed Precip Events Conditions
12:53 AM 53.1 °F - 51.1 °F 93% 29.42 in 8.0 mi SW 13.8 mph 24.2 mph 0.00 in Rain Light Rain
1:53 AM 54.0 °F - 51.1 °F 90% 29.39 in 7.0 mi SSW 10.4 mph 24.2 mph 0.01 in   Overcast
2:53 AM 54.0 °F - 51.1 °F 90% 29.33 in 7.0 mi SSW 13.8 mph 28.8 mph N/A   Overcast
3:53 AM 54.0 °F - 51.1 °F 90% 29.25 in 7.0 mi South 16.1 mph 29.9 mph 0.01 in   Overcast
4:53 AM 53.1 °F - 50.0 °F 89% 29.18 in 6.0 mi South 15.0 mph 24.2 mph N/A   Overcast
5:27 AM 51.8 °F - 50.0 °F 94% 29.15 in 2.5 mi South 12.7 mph 27.6 mph 0.01 in Rain Light Rain
5:39 AM 51.8 °F - 48.2 °F 88% 29.14 in 3.0 mi South 15.0 mph 27.6 mph 0.01 in   Overcast
5:53 AM 52.0 °F - 50.0 °F 93% 29.13 in 4.0 mi South 15.0 mph 25.3 mph 0.01 in   Overcast
6:53 AM 54.0 °F - 51.1 °F 90% 29.05 in 4.0 mi South 16.1 mph 32.2 mph 0.04 in Rain Light Rain
9:35 AM 53.6 °F - 51.8 °F 94% 28.91 in 7.0 mi South 11.5 mph 27.6 mph N/A Rain Light Rain
9:53 AM 53.1 °F - 51.1 °F 93% 28.91 in 7.0 mi South 13.8 mph 21.9 mph N/A   Overcast
10:14 AM 53.6 °F - 51.8 °F 94% 28.89 in 6.0 mi South 16.1 mph 26.5 mph 0.01 in Rain Light Rain
10:33 AM 53.6 °F - 51.8 °F 94% 28.88 in 10.0 mi South 15.0 mph 29.9 mph 0.01 in   Overcast
10:53 AM 54.0 °F - 51.1 °F 90% 28.86 in 10.0 mi SSW 17.3 mph 29.9 mph 0.01 in   Overcast
11:21 AM 51.8 °F - 42.8 °F 71% 28.90 in 10.0 mi WSW 11.5 mph 32.2 mph N/A   Overcast
11:53 AM 48.9 °F - 41.0 °F 74% 28.90 in 10.0 mi WSW 9.2 mph - 0.00 in Rain Light Rain
12:53 PM 50.0 °F - 35.1 °F 57% 28.99 in 10.0 mi WSW 9.2 mph 35.7 mph 0.00 in   Mostly Cloudy
1:53 PM 46.9 °F - 30.0 °F 52% 29.03 in 10.0 mi WSW 13.8 mph 28.8 mph N/A   Clear
2:53 PM 46.0 °F 39.9 °F 26.1 °F 46% 29.09 in 10.0 mi West 13.8 mph 29.9 mph N/A   Clear
3:53 PM 43.0 °F 36.8 °F 21.9 °F 43% 29.14 in - SW 11.5 mph 25.3 mph N/A   Clear
4:53 PM 39.0 °F 31.4 °F 18.0 °F 43% 29.20 in 10.0 mi WSW 12.7 mph 25.3 mph N/A   Clear
5:53 PM 37.0 °F 28.5 °F 14.0 °F 39% 29.27 in 10.0 mi WSW 13.8 mph 25.3 mph N/A   Mostly Cloudy
7:53 PM 35.1 °F 26.4 °F 12.0 °F 39% 29.33 in 10.0 mi WSW 12.7 mph 19.6 mph N/A   Scattered Clouds
8:53 PM 34.0 °F 24.6 °F 9.0 °F 35% 29.36 in 10.0 mi WSW 13.8 mph 27.6 mph N/A   Mostly Cloudy
9:53 PM 33.1 °F 24.9 °F 9.0 °F 37% 29.39 in 10.0 mi WSW 10.4 mph 23.0 mph N/A   Partly Cloudy
10:53 PM 30.9 °F 24.3 °F 10.0 °F 42% 29.42 in 10.0 mi Variable 6.9 mph - N/A   Partly Cloudy
11:53 PM 30.9 °F 21.7 °F 10.9 °F 43% 29.44 in 10.0 mi WSW 11.5 mph 25.3 mph N/A   Clear